Location: Altenhof
(50.2418°N, 10.8789°E)
Time: 16:59:50
(UTC+00:00)

CZ-2C R/B - Pass Details

Date: 18 February 2020
Orbit: 668 x 785 km, 98.1° (Epoch: 29 March)

Event Time Altitude Azimuth Distance (km) Brightness Sun altitude
Rises 03:50:08 0° 13° (NNE) 3,289 6.1 -25.0°
Reaches altitude 10° 03:52:28 10° 13° (NNE) 2,355 5.3 -24.7°
Maximum altitude 03:57:42 83° 286° (WNW) 792 2.4 -23.8°
Enters shadow 03:59:19 45° 204° (SSW) 1,046 2.9 -23.6°
